Location: Drocourt
(49.0571°N, 1.7669°E)
Time: 08:02:04
(UTC+00:00)

Spot 1 - Pass Details

Date: 09 February 2023
Orbit: 575 x 772 km, 98.8° (Epoch: 30 March)

Event Time Altitude Azimuth Distance (km) Brightness Sun altitude
Exits shadow 18:59:37 36° 40° (NE) 927 4.6 -19.5°
Maximum altitude 19:01:04 59° 103° (ESE) 671 3.9 -19.7°
Drops below altitude 10° 19:05:06 10° 183° (S) 1,902 6.6 -20.4°
Sets 19:07:18 0° 187° (S) 2,814 7.5 -20.8°
